Regional Weather Roundup
Issued by NWS

Home | Current Version | Previous Version | Text Only | Print | Product List | Glossary Off
Versions: 1 2 3 4 5 6 7 8 9 10 11 12 13 14 15 16 17 18 19 20 21 22 23 24 25 26 27 28 29 30 31 32 33 34 35 36 37 38 39 40 41 42 43 44 45 46 47 48 49 50

395
ASUS43 KLOT 101008
RWRIL

ILLINOIS REGIONAL WEATHER ROUNDUP
NATIONAL WEATHER SERVICE CHICAGO/ROMEOVILLE IL
400 AM CST WED FEB 10 2016

NOTE: "FAIR" INDICATES FEW OR NO CLOUDS BELOW 12,000 FEET WITH NO
SIGNIFICANT WEATHER AND/OR OBSTRUCTIONS TO VISIBILITY.

* THESE STATIONS ARE NOT UNDER NWS QUALITY CONTROL. THEY ALSO MAY NOT
  REPORT WEATHER SUCH AS PRECIPITATION OR FOG.

ILZ001-002-007-009-015-016-024-101100-
NORTHWEST ILLINOIS

CITY           SKY/WX    TMP DP  RH WIND       PRES   REMARKS
MOLINE         CLEAR      9  -1  64 NW8       30.10S WCI  -3
STERLING*      CLEAR      9   0  66 NW7       30.02F WCI  -3
SAVANNA*       PTCLDY     9  -1  62 NW10      30.07R WCI  -5
$$

ILZ003-004-008-010-011-017-018-101100-
NORTH CENTRAL ILLINOIS

CITY           SKY/WX    TMP DP  RH WIND       PRES   REMARKS
ROCKFORD       FLURRIES  10   1  67 NW8       30.02F WCI  -2
FREEPORT*      CLEAR      6  -1  71 NW8       30.04S WCI  -7
ROCHELLE*      MOCLDY     9   1  70 NW12      30.01F WCI  -6
DE KALB*       MOCLDY     8   2  75 NW10      29.99S WCI  -6
$$

ILZ005-006-012>014-019>023-101100-
NORTHEAST ILLINOIS

CITY           SKY/WX    TMP DP  RH WIND       PRES   REMARKS
CHICAGO-OHARE  PTCLDY    10   1  67 NW12      29.97R WCI  -5
CHICAGO-MIDWAY PTCLDY    13   1  59 NW15      29.98R WCI  -3
AURORA         CLOUDY    12   3  67 NW14      30.00R WCI  -3
LANSING*       PTCLDY    13   4  66 NW13      29.97R WCI  -2
JOLIET*        MOCLDY    13   4  67 NW10G17   30.01R WCI   0
WAUKEGAN       PTCLDY     9   1  70 NW7       29.96R WCI  -2
DUPAGE AIRPORT CLEAR     10  -1  61 NW16      29.98R WCI  -7
KANKAKEE*      CLEAR     11   4  74 W8        30.00R WCI  -1
WHEELING       PTCLDY    10   1  67 NW13      29.98R WCI  -5
MORRIS*        PTCLDY    11   3  70 NW12      29.98R WCI  -4
ROMEOVILLE*    PTCLDY    11   3  68 NW12G20   30.00R WCI  -3
NORTHERLY ISL    N/A     14   5  67 W14         N/A  WCI  -1
$$

LMZ740>746-101100-
SOUTHERN LAKE MICHIGAN

STATION/POSITION SKY/WX   TEMP    WIND        PRES    VSBY  WAVE
                          AIR SEA DIR/SP/G                  HT/PER
                          (F)     (DEG/KT/KT) (MB)    (MI)  (FT/S)
HARRISON CRIB              15     310/ 22/ 25   N/A
BURNHAM HARBOR             13     310/ 10/ 18   N/A
CALUMET HARBOR             13     290/ 13/ 18 1013.8R
BURNS HARBOR               18     310/ 20     1013.5S
MICHIGAN CITY              19     280/ 26/ 30   N/A
$$

ILZ025>027-034>036-040-047-049-050-058-095>099-101100-
WEST-CENTRAL ILLINOIS

CITY           SKY/WX    TMP DP  RH WIND       PRES   REMARKS
QUINCY         CLEAR      9   2  73 NW7       30.14S WCI  -2
GALESBURG*     CLEAR      6   1  81 W7        30.08F WCI  -6
MACOMB*        CLEAR      8   4  80 W10       30.13F WCI  -6
JACKSONVILLE*  CLEAR     13   5  69 W12       30.13S WCI   0
PITTSFIELD*    PTCLDY    13   5  70 W7        30.15S WCI   3
$$

ILZ028>032-037-038-041>044-048-051>054-059>061-101100-
CENTRAL ILLINOIS

CITY           SKY/WX    TMP DP  RH WIND       PRES   REMARKS
PONTIAC        CLEAR     10   4  77 NW13      30.04R WCI  -5
BLOOMINGTON    CLEAR      9   3  76 NW14      30.05R WCI  -7
DECATUR        CLEAR     11   4  73 W12       30.08R WCI  -3
PEORIA         CLEAR     10   1  67 NW8       30.08R WCI  -2
LACON*         CLEAR     10   2  71 NW12G18   30.06F WCI  -5
LINCOLN*       PTCLDY    11   5  76 W3        30.10R
SPRINGFIELD    PTCLDY    12   3  67 W13       30.12R WCI  -3
TAYLORVILLE    CLEAR     12   5  73 W14       30.11R WCI  -3
$$

ILZ033-039-045-046-055>057-062-063-101100-
EAST-CENTRAL ILLINOIS

CITY           SKY/WX    TMP DP  RH WIND       PRES   REMARKS
CHAMPAIGN      CLEAR      9   3  77 W12       30.03S WCI  -6
RANTOUL*       CLEAR     11   5  75 W13       30.02R WCI  -3
MATTOON        CLEAR      9   3  77 W14       30.04F WCI  -7
PARIS*         PTCLDY    11   6  79 W14       30.04S WCI  -5
$$

ILZ079-100>102-101100-
SOUTHWEST ILLINOIS

CITY           SKY/WX    TMP DP  RH WIND       PRES   REMARKS
ALTON          CLEAR     14   6  69 NW12      30.15S WCI   0
BELLEVILLE     CLEAR     13   6  73 NW7       30.15S WCI   3
CAHOKIA*       CLOUDY    18   6  59 NW13      30.17R WCI   5
SPARTA*        CLOUDY    17   8  69 NW6       30.16S WCI   8
$$

ILZ064>066-069>071-074>076-080>082-084>086-088>090-092>094-101100-
SOUTH-CENTRAL ILLINOIS

CITY           SKY/WX    TMP DP  RH WIND       PRES   REMARKS
CARBONDALE     CLOUDY    17   8  67 NW9       30.16S WCI   6
EFFINGHAM*     CLEAR     12   7  80 W10       30.10F WCI  -1
MARION         PTCLDY    18   9  68 NW6       30.16S WCI   9
MT. VERNON     CLOUDY    16   3  57 W6        30.13S WCI   7
CENTRALIA*     MOCLDY    16   8  71 NW12G23   30.12S WCI   2
SALEM*         PTCLDY    15   6  67 W10       30.12S WCI   2
METROPOLIS*    MOCLDY    20  10  65 NW12G18   30.16S WCI   8
$$

ILZ067-068-072-073-078-083-087-091-101100-
SOUTHEAST ILLINOIS

CITY           SKY/WX    TMP DP  RH WIND       PRES   REMARKS
LAWRENCEVILLE  CLOUDY    14   6  70 W16       30.09R WCI  -2
FLORA*         PTCLDY    15   7  71 NW13G20   30.11S WCI   1
FAIRFIELD*     CLOUDY    15   6  66 NW7G23    30.12S WCI   6
HARRISBURG*    CLEAR     16   8  69 NW16      30.15S WCI   1
ROBINSON*      FLURRIES  14   8  77 W15       30.09R WCI  -2
CARMI*         MOCLDY    16   8  72 NW12G21   30.12S WCI   3
$$

ABBREVIATIONS USED IN REMARKS
   TC - TEMPERATURE IN CELSIUS
  WCI - WIND CHILL INDEX
   HX - HEAT INDEX
  VSB - VISIBILITY
$$





USA.gov is the U.S. government's official web portal to all federal, state and local government web resources and services.